Probability
0 0 0 0 1 2 2 2 3 3 2 1 0 0 0 0 0 0 0 0 0 1 2 3 3 2 1 0 0 0 1 2 3 3 3 3 3 3 3 3 3 2 1
0 0 0 0 1 1 1 1 2 3 2 1 0 0 0 0 0 0 0 0 0 1 3 3 3 2 1 0 0 0 0 1 2 3 3 3 3 3 3 3 2 1 0
0 0 0 0 0 0 0 0 1 2 2 1 0 0 0 0 0 0 0 1 1 2 3 3 2 2 1 0 0 0 0 0 1 2 2 2 3 3 2 2 2 1 0
0 0 0 0 0 0 0 0 0 1 1 1 0 0 0 0 0 0 0 1 2 3 3 3 2 2 2 1 0 0 0 0 0 1 1 1 1 2 2 2 2 1 1
0 1 1 1 0 0 0 0 0 0 1 1 0 0 0 0 0 0 0 2 3 3 3 3 2 2 3 2 1 1 0 0 0 0 0 0 1 2 2 2 2 1 1
0 1 2 1 0 0 0 0 0 0 0 0 1 1 1 0 0 0 1 2 3 3 3 2 1 2 3 3 1 1 0 0 0 0 0 0 0 1 1 1 1 1 1
0 0 1 1 1 0 0 0 0 0 0 0 1 1 1 0 0 0 1 2 2 2 2 1 1 2 3 3 2 1 0 0 0 0 0 0 0 0 0 1 2 1 0
0 0 0 1 1 1 0 0 0 0 0 0 1 1 0 0 0 0 0 1 1 1 1 0 1 2 3 3 2 1 0 0 0 0 0 0 0 0 1 2 2 1 0
0 0 0 1 1 1 0 0 0 0 0 0 0 0 0 0 0 0 0 0 0 0 0 0 1 2 3 3 3 1 0 0 0 0 0 0 0 0 1 3 2 1 0
0 0 0 0 0 0 0 0 0 0 0 0 0 0 0 0 0 0 0 0 1 1 1 0 0 2 3 3 3 2 1 0 0 0 0 0 0 1 2 3 2 1 0
0 0 0 0 0 0 0 0 0 0 0 0 0 0 0 0 0 0 0 0 1 1 1 0 1 2 3 3 2 2 1 0 0 0 0 0 0 1 2 3 2 1 0
0 0 0 0 0 0 0 0 0 0 0 0 0 0 0 0 0 0 0 0 0 0 0 0 1 2 2 1 1 1 0 0 0 0 0 1 2 2 3 3 2 1 0
0 0 0 0 0 0 0 0 0 0 0 0 0 0 0 0 0 0 0 0 0 0 0 0 0 1 1 0 0 0 0 0 0 0 1 2 3 2 2 3 2 1 0
0 0 0 0 0 0 0 0 0 0 0 0 0 0 0 0 0 0 0 0 0 0 0 0 0 0 0 0 0 0 0 0 0 0 0 1 2 1 1 2 2 1 0
0 0 0 0 0 0 0 0 0 0 0 0 0 0 0 0 0 0 0 0 0 0 0 0 0 0 0 0 0 0 0 0 1 0 0 0 0 0 0 1 1 1 0
0 0 0 0 0 0 0 0 0 0 0 0 0 0 0 0 0 0 0 0 0 0 0 0 0 0 0 0 0 0 0 0 0 0 0 0 0 0 0 0 0 1 1
0 0 0 0 0 0 0 0 0 0 0 0 0 0 0 0 0 0 0 0 0 0 0 0 0 0 0 0 0 0 0 0 0 0 0 0 0 0 0 0 0 1 1
0 0 0 0 0 0 0 0 0 0 0 0 0 0 0 0 0 0 0 0 0 0 0 0 0 0 0 0 0 0 0 0 0 0 0 0 0 0 0 0 0 0 1
0 0 0 0 0 0 0 0 0 0 0 0 0 0 0 0 0 0 0 0 0 0 0 0 0 0 0 0 0 0 0 0 0 0 0 0 0 0 0 0 0 0 0
0 0 0 0 0 0 0 0 0 0 0 0 0 0 0 0 0 0 0 0 0 0 0 0 0 0 0 0 0 0 0 0 0 0 0 0 0 0 0 0 0 0 0
0 0 0 0 0 0 0 0 0 0 0 0 0 0 0 0 0 0 0 0 0 0 0 0 0 0 0 0 0 0 0 0 0 0 0 0 0 0 0 0 0 0 0
0 0 0 0 0 0 0 0 0 0 0 0 0 0 0 0 0 0 0 0 0 0 0 0 0 0 0 0 0 0 0 0 0 0 0 0 0 0 0 0 0 0 0
1 0 0 0 0 0 0 0 0 0 0 0 0 0 0 0 0 0 0 0 0 1 1 1 0 0 0 0 0 0 0 0 0 0 0 0 0 0 0 0 0 0 0
1 1 1 1 1 0 0 0 0 0 0 0 0 0 0 0 0 0 0 0 0 1 1 1 0 0 0 0 0 0 0 0 0 0 0 0 0 0 0 0 0 0 0
1 2 2 2 2 1 0 0 0 0 0 0 0 0 0 0 0 0 0 0 0 0 0 0 0 0 0 0 0 0 0 0 0 0 0 0 0 0 0 0 0 0 0
0 1 3 3 3 2 1 0 0 0 0 0 0 0 0 0 0 0 0 0 0 0 0 0 0 0 0 0 0 0 0 0 0 0 0 0 0 0 0 0 0 0 0
Wind_Speed
6 9 9 9 9 9 9 10 10 10 10 10 10 11 11 10 10 10 9 9 8 8 8 8 8 8 8 8 8 8 9 9 9 8 8 8 8 7 7 6 6 6 8
7 9 10 9 9 9 9 9 9 9 9 10 10 11 11 11 10 11 10 9 9 9 8 8 8 8 9 9 8 8 8 8 8 7 7 7 7 7 7 8 8 5 8
7 9 9 9 9 9 9 9 8 9 9 9 10 10 10 11 11 10 10 9 9 8 8 8 9 8 9 9 8 8 8 7 6 6 5 3 5 8 8 8 8 8 7
8 9 9 8 8 8 8 8 9 9 9 9 9 10 10 10 10 10 9 9 9 9 9 9 9 8 8 8 8 8 7 6 6 5 3 4 5 9 9 8 8 8 8
8 9 8 8 8 8 8 8 9 9 9 9 9 9 9 10 9 9 9 9 9 9 9 9 9 8 8 8 8 7 6 6 6 5 4 5 5 9 9 9 8 8 8
8 9 8 8 8 8 8 8 9 9 9 9 9 9 9 9 9 9 9 9 9 9 10 9 9 9 8 8 7 7 6 6 5 4 4 5 5 9 10 9 9 8 8
7 8 8 8 8 8 8 8 8 8 8 9 8 8 8 9 9 9 9 9 9 9 10 9 9 9 9 8 7 6 6 6 4 4 5 5 6 10 10 10 9 8 8
6 7 8 8 8 8 8 8 8 8 8 9 8 7 7 8 8 9 9 9 9 10 10 9 9 9 9 8 7 7 7 7 6 6 6 5 8 10 10 9 9 8 8
4 5 6 7 7 8 8 8 7 7 8 7 7 7 7 8 8 9 10 9 10 10 9 9 9 9 8 7 7 7 8 8 5 4 7 5 9 10 10 9 9 8 8
4 4 4 4 6 6 6 7 7 6 6 6 5 5 6 7 7 8 9 9 9 9 9 9 9 8 8 6 6 6 7 6 5 6 4 6 10 10 10 9 9 8 8
5 4 4 4 4 3 5 7 6 6 5 4 4 5 4 3 4 5 8 9 9 9 8 7 7 7 6 4 4 5 4 3 6 5 4 9 10 10 10 9 9 8 8
4 3 3 4 4 4 4 4 2 3 3 2 1 2 2 3 4 6 7 8 8 7 6 4 4 3 2 1 2 3 2 4 4 4 5 10 10 10 9 9 9 8 8
4 3 4 4 4 4 3 3 2 1 1 2 2 3 2 3 3 4 3 3 3 4 2 2 1 1 2 2 2 2 3 4 3 4 6 10 10 10 9 9 9 8 8
5 4 3 4 4 4 3 2 2 1 2 2 2 3 3 2 2 2 2 2 2 2 2 2 2 4 4 4 4 4 5 3 3 3 5 10 10 10 10 9 9 9 8
5 4 5 5 4 4 3 2 3 2 2 3 2 2 3 2 2 3 2 2 2 2 3 2 3 4 4 5 5 6 5 5 5 5 4 9 10 10 10 10 10 10 9
5 5 4 4 4 4 3 2 3 2 2 2 2 2 4 3 2 3 3 3 3 2 2 2 4 4 3 4 5 5 5 4 4 4 4 5 9 9 10 10 10 10 10
5 6 5 4 5 5 4 3 2 2 2 3 3 3 3 3 3 4 3 3 3 3 3 4 4 3 3 3 4 4 4 4 4 4 4 3 4 7 8 9 10 10 10
5 6 5 4 4 4 3 3 2 3 3 3 2 3 3 4 4 4 3 2 2 3 3 3 3 3 3 3 3 3 3 3 3 3 3 3 3 3 5 9 9 10 10
5 5 5 4 4 4 3 2 2 3 3 2 2 2 3 3 3 3 2 2 3 3 2 3 3 3 3 2 2 2 2 3 3 4 4 4 4 4 3 6 9 10 10
4 5 5 4 4 4 3 2 2 3 2 2 2 2 2 2 3 3 1 2 3 2 2 2 3 2 1 1 3 3 2 2 2 3 3 3 3 4 4 5 4 6 10
4 5 4 4 4 4 2 2 2 2 2 2 1 2 2 2 2 2 2 2 2 2 2 3 2 2 1 2 2 2 2 2 3 2 2 3 3 4 4 4 3 3 4
4 4 4 4 4 4 2 1 1 1 1 2 2 2 2 2 2 1 2 2 2 2 2 2 2 1 1 1 1 1 1 2 2 2 1 2 3 3 4 4 4 4 4
5 4 4 4 4 4 3 2 2 2 1 2 2 1 2 2 2 2 2 2 2 2 1 1 2 2 0 1 1 1 1 1 1 2 2 3 2 2 2 2 4 4 5
5 4 4 4 4 3 4 2 2 1 1 1 1 1 1 1 2 2 1 2 1 1 1 1 2 1 1 1 1 1 1 2 2 0 2 2 3 3 3 3 4 4 4
5 4 4 4 3 3 3 2 1 1 1 1 1 2 1 1 1 1 1 1 1 1 1 1 1 1 1 0 0 0 1 0 1 2 0 1 1 2 2 3 2 3 3
5 4 3 4 3 2 2 3 2 1 1 1 1 2 1 1 0 0 1 1 1 1 1 1 1 1 0 1 1 0 0 0 0 1 1 1 0 1 2 2 2 2 3
Wind_Direction
79 84 68 56 50 47 46 45 46 49 51 51 52 53 53 53 55 58 59 60 60 65 65 62 61 59 61 60 60 65 71 77 86 90 88 85 80 81 78 73 78 82 83
88 92 74 59 52 50 49 48 50 52 52 54 56 56 55 54 55 58 60 62 65 68 68 65 63 62 62 60 60 64 71 75 80 89 93 87 83 84 79 73 75 83 83
86 95 80 61 56 53 54 53 53 55 58 60 61 59 59 59 58 62 64 65 67 68 68 65 64 62 63 61 60 62 68 70 71 77 83 90 86 84 83 80 81 83 84
79 82 76 67 61 58 57 58 58 60 62 63 63 61 60 61 63 65 66 68 70 70 68 67 66 64 64 62 60 57 58 59 60 60 62 73 76 84 85 83 80 78 80
81 86 84 76 69 63 61 64 65 63 64 62 62 59 59 63 66 66 68 71 74 76 73 70 69 71 70 67 64 56 55 53 51 49 56 63 64 80 82 79 77 78 80
92 96 97 88 79 72 69 67 66 65 65 65 64 61 62 64 66 67 72 77 78 82 80 77 75 71 72 69 63 54 49 43 45 56 62 66 70 76 78 76 77 77 78
96 102 109 104 93 83 77 73 70 67 67 67 68 67 65 68 68 69 75 81 83 86 85 81 78 70 64 60 57 50 42 32 63 65 63 66 72 78 78 77 77 78 76
93 111 116 118 111 100 88 81 78 77 74 72 74 73 73 77 75 73 76 81 84 85 86 85 81 74 66 60 56 49 39 34 65 74 68 66 79 80 79 76 75 74 72
86 101 123 138 128 117 106 99 95 93 89 87 85 86 85 85 84 83 83 88 88 87 87 86 84 82 78 71 64 54 41 30 48 59 69 66 75 77 77 76 74 74 73
78 82 97 116 129 136 130 118 115 113 114 111 106 107 108 105 98 95 93 92 92 92 92 91 91 90 84 76 66 55 42 26 58 58 58 73 76 76 77 76 74 72 73
74 68 77 89 89 100 119 127 140 142 148 144 144 155 147 132 117 105 100 104 103 100 99 98 103 104 97 81 63 61 45 56 67 61 54 70 74 74 74 74 73 72 71
91 86 86 82 85 76 78 100 113 114 135 149 131 140 146 110 93 103 110 114 118 117 114 120 125 119 116 87 65 72 54 66 71 69 60 68 70 68 69 69 68 67 68
95 80 87 82 84 82 79 83 69 75 86 70 61 74 77 94 111 115 130 127 128 131 120 118 122 92 85 82 67 76 67 67 71 66 60 65 66 65 65 67 66 63 66
101 83 82 87 86 85 82 82 88 68 61 59 35 64 60 51 69 87 93 102 103 95 79 60 63 63 57 61 59 65 67 70 77 77 63 67 65 64 65 65 63 63 64
113 101 75 72 76 81 76 68 83 72 68 72 33 56 78 65 64 78 85 89 85 82 78 59 61 59 51 49 48 58 62 63 69 79 73 71 69 65 64 66 67 67 66
116 105 96 88 85 80 76 65 78 84 78 75 50 41 74 75 70 73 71 79 80 81 76 73 69 65 62 59 52 52 56 59 67 84 90 74 71 69 65 65 67 67 70
114 105 89 80 78 77 75 68 80 75 68 59 43 32 52 75 71 69 56 64 76 79 71 66 58 54 68 70 68 62 58 59 60 66 84 95 83 73 71 68 69 69 70
106 100 94 82 77 69 60 55 71 83 71 61 47 32 34 58 70 75 70 61 78 78 75 76 72 57 52 51 52 56 62 67 59 63 68 86 94 86 73 72 71 68 69
109 107 103 89 89 82 67 55 47 79 81 76 59 40 29 53 72 77 73 69 69 73 70 74 73 71 65 58 58 62 59 61 45 57 55 67 87 96 94 79 74 69 68
107 108 107 102 88 85 64 56 50 52 65 66 66 55 38 42 63 80 91 81 77 80 78 79 89 78 85 67 64 61 65 70 59 53 51 51 64 86 99 97 84 70 67
121 116 116 115 101 91 75 69 70 62 74 66 60 57 53 48 58 75 80 79 86 94 103 98 93 71 67 82 76 55 38 58 80 63 61 55 49 62 84 95 96 93 75
127 127 120 110 107 108 106 95 100 94 94 87 61 50 42 47 34 68 95 95 102 99 91 91 93 69 25 72 105 91 52 15 21 53 72 77 63 60 67 77 84 90 94
138 135 131 127 121 118 110 81 68 56 52 65 65 49 31 41 40 35 67 91 112 124 127 124 115 112 359 325 78 116 120 126 354 358 55 74 75 73 70 69 71 77 92
143 141 136 128 122 119 117 107 109 111 108 109 120 113 83 50 43 28 66 95 101 116 137 170 142 151 158 288 331 4 118 140 138 21 1 46 68 74 69 71 70 69 83
134 133 130 131 120 117 129 137 129 100 129 109 110 112 106 74 45 21 70 92 110 124 135 114 88 89 135 161 183 1 13 273 157 145 154 348 32 58 75 74 82 80 81
121 130 139 133 122 132 149 147 146 148 140 120 129 139 156 144 109 40 85 91 121 125 130 121 122 102 75 36 27 59 165 173 157 133 154 175 110 66 83 83 90 97 93